Regional Weather Roundup
Issued by NWS

Home | Current Version | Previous Version | Graphics & Text | Print | Product List | Glossary On
Versions: 1 2 3 4 5 6 7 8 9 10 11 12 13 14 15 16 17 18 19 20 21 22 23 24 25 26 27 28 29 30 31 32 33 34 35 36 37 38 39 40 41 42 43 44 45 46 47 48 49 50
000
ASUS43 KDMX 280701
RWRIA

WEATHER ROUNDUP FOR IOWA
NATIONAL WEATHER SERVICE DES MOINES IA
100 AM CST TUE FEB 28 2017

NOTE: "FAIR" INDICATES FEW OR NO CLOUDS BELOW 12,000 FEET WITH NO
SIGNIFICANT WEATHER AND/OR OBSTRUCTIONS TO VISIBILITY.

* - THESE STATIONS ARE NOT NWS STATIONS...THUS NOT UNDER NWS
QUALITY CONTROL.  THEY ALSO DO NOT REPORT WEATHER SUCH
AS PRECIPITATION OR FOG.

IAZ001>003-012>014-020>022-031>034-043>046-280800-
   NORTHWEST IOWA

CITY           SKY/WX    TMP DP  RH WIND       PRES   REMARKS
CARROLL *      CLOUDY    39  36  87 SE8       29.70F WCI  34
CHEROKEE *     CLOUDY    38  32  79 SE3       29.69F
DENISON *      CLOUDY    41  32  70 E7        29.67F
LE MARS *      CLOUDY    37  30  75 CALM      29.68F
SHELDON *      CLOUDY    34  34 100 SE7       29.67F WCI  28
SIOUX CITY     CLOUDY    38  30  73 E7        29.65F WCI  33
SPENCER        CLEAR     37  31  78 SE9       29.71S WCI  30
STORM LAKE *   CLOUDY    36  32  87 SE12      29.70F WCI  27
$$

IAZ055>058-069>071-079>083-090>094-280800-
   SOUTHWEST IOWA

CITY           SKY/WX    TMP DP  RH WIND       PRES   REMARKS
ATLANTIC *     CLOUDY    37  34  87 CALM      29.69F
AUDUBON *      CLOUDY    36  30  80 CALM      29.71F
CLARINDA *     CLOUDY    50  37  62 CALM      29.71F
COUNCIL BLFS * CLOUDY    45  36  70 SE9       29.65F
CRESTON *      CLOUDY    48  45  87 S9        29.72F
HARLAN  *      CLOUDY    37  34  87 E3        29.71F
LAMONI         CLOUDY    53  39  59 S10       29.72F
RED OAK *      CLOUDY    46  37  71 VRB3      29.68F
SHENANDOAH *   CLOUDY    50  39  66 E7        29.67F
$$

IAZ047>049-059>061-072>074-084-280800-
   CENTRAL IOWA

CITY           SKY/WX    TMP DP  RH WIND       PRES   REMARKS
AMES           CLOUDY    43  36  76 E6        29.74F
ANKENY *       CLOUDY    41  34  75 SE3       29.75F
BOONE *        CLOUDY    41  36  81 E7        29.72F
CHARITON *     RAIN      46  39  76 S10       29.76R
DES MOINES     CLOUDY    46  32  58 E7        29.74F
GRINNELL*      CLOUDY    42  35  74 E8        29.77F
KNOXVILLE *    CLOUDY    50  34  53 S8        29.73F
MARSHALLTOWN   CLOUDY    40  36  86 E14       29.75F WCI  32
NEWTON *       CLOUDY    41  34  75 E9        29.75F
PELLA *        CLOUDY    46  35  64 SE8       29.76F
PERRY *          N/A     39  34  80 E8        29.73F WCI  34
$$

IAZ004>006-015-016-023>025-035-036-280800-
   NORTH CENTRAL IOWA

CITY           SKY/WX    TMP DP  RH WIND       PRES   REMARKS
ALGONA *       PTCLDY    39  36  87 SE15G22   29.72F WCI  31
CLARION *      CLOUDY    41  36  81 SE18G25   29.74F
ESTHERVILLE    CLEAR     34  32  92 SE10      29.71F WCI  26
FORT DODGE *   CLOUDY    39  30  70 E17       29.73F WCI  30
MASON CITY     CLOUDY    40  35  83 SE14      29.76F WCI  32
FOREST CITY *    N/A     37  32  81 SE10      29.74F WCI  30
WEBSTER CITY * CLOUDY    39  34  81 E12       29.72F WCI  32
IOWA FALLS *   MOCLDY    40  35  84 E9        29.78F WCI  33
$$

IAZ007>011-017>019-026>030-037>042-050>054-066-280800-
   NORTHEAST IOWA

CITY           SKY/WX    TMP DP  RH WIND       PRES   REMARKS
CEDAR RAPIDS   CLOUDY    44  39  82 E9        29.79F
CHARLES CITY * CLOUDY    39  39 100 E9        29.82F WCI  33
CLINTON *      RAIN      45  41  86 E9        29.87S
DECORAH *      CLOUDY    39  37  93 E7        29.83F WCI  34
DUBUQUE        CLOUDY    43  40  89 SE13      29.84F
MONTICELLO *   CLOUDY    45  39  81 SE14      29.82F
OELWEIN *      CLOUDY    43  39  87 E13       29.81F
WATERLOO       CLOUDY    44  37  76 SE9       29.78F
$$

IAZ064-065-067-068-078-280800-
   EAST CENTRAL IOWA

CITY           SKY/WX    TMP DP  RH WIND       PRES   REMARKS
DAVENPORT      CLOUDY    49  42  77 SE7       29.85F
IOWA CITY      CLOUDY    48  39  71 E5        29.82F
MUSCATINE *    MOCLDY    52  43  71 S9        29.83R
QUAD CITIES    CLOUDY    51  42  71 S15       29.83F
$$

IAZ062-063-075>077-085>089-095>099-280800-
   SOUTHEAST IOWA

CITY           SKY/WX    TMP DP  RH WIND       PRES   REMARKS
BURLINGTON     MOCLDY    54  46  74 S12       29.83F
FAIRFIELD *    CLOUDY    52  39  62 S13G18    29.78F
FORT MADISON * CLOUDY    52  45  76 S9        29.84F
KEOKUK *       CLOUDY    55  46  71 S10G17    29.82F
CENTERVILLE *  MOCLDY    50  43  76 CALM      29.78F
OTTUMWA        MOCLDY    52  37  56 S14       29.77F
WASHINGTON *   CLOUDY    52  43  71 S13       29.81F
$$

ABBREVIATIONS USED IN REMARKS
   TC - TEMPERATURES IN CELSIUS
  WCI - WIND CHILL INDEX
   HX - HEAT INDEX
  VSB - VISIBILITY
$$





USA.gov is the U.S. government's official web portal to all federal, state and local government web resources and services.